Regional Weather Roundup
Issued by NWS

Home | Current Version | Previous Version | Graphics & Text | Print | Product List | Glossary On
Versions: 1 2 3 4 5 6 7 8 9 10 11 12 13 14 15 16 17 18 19 20 21 22 23 24 25 26 27 28 29 30 31 32 33 34 35 36 37 38 39 40 41 42 43 44 45 46 47 48 49 50
000
ASUS43 KIND 132359
RWRIN

WEATHER ROUNDUP FOR INDIANA
NATIONAL WEATHER SERVICE INDIANAPOLIS IN
700 PM EST WED DEC 13 2017

NOTE: "FAIR" INDICATES FEW OR NO CLOUDS BELOW 12,000 FEET WITH NO
SIGNIFICANT WEATHER AND/OR OBSTRUCTIONS TO VISIBILITY.

* - STATION DOES NOT REPORT WEATHER SUCH AS PRECIPITATION OR FOG.

+ - STATION NOT QUALITY CONTROLLED BY THE NATIONAL WEATHER SERVICE.
    USE DATA WITH CAUTION...ESPECIALLY DEWPOINT AND RELATIVE
    HUMIDITY OBSERVATIONS.

INZ001>003-010>013-019-020-140100-
NORTHWEST INDIANA

CITY           SKY/WX    TMP DP  RH WIND       PRES   REMARKS
GARY /AIRPORT/ CLOUDY    36  25  64 NW28G41   29.42R WCI  23
KNOX *+        CLOUDY    34  30  86 NW20G29   29.35R WCI  22
MONTICELLO +   CLOUDY    37  29  74 W25G32    29.39R WCI  25
6HR MIN TEMP:  33; 6HR MAX TEMP:  39;

RENSSELAER +   CLOUDY    36  25  64 W22G37    29.43R WCI  24

$$

LMZ046-743>745-140100-
SOUTHERN LAKE MICHIGAN

STATION/POSITION TIME  TEMP    WIND        PRES    WAVE
                       AIR SEA DIR/SP/G            HT
                 (UTC) (F)     (DEG/KT/KT) (MB)    (FT)
BURNS HARBOR     2340   35     310/ 26/ 32  994.9R
MICHIGAN CITY    2330   35     290/ 35/ 39   N/A

$$

INZ004-005-014>016-021>024-140100-
NORTH CENTRAL INDIANA

CITY           SKY/WX    TMP DP  RH WIND       PRES   REMARKS
ELKHART        LGT SNOW  34  30  86 W21G29    29.30R WCI  22
GOSHEN         MIX PCPN  34  31  88 W18       29.29S WCI  23
6HR MIN TEMP:  28; 6HR MAX TEMP:  34; 6HR PCP:  0.03;

SOUTH BEND     LGT SNOW  32  30  92 NW23G30   29.33R FOG     WCI  19
6HR MIN TEMP:  27; 6HR MAX TEMP:  33; 6HR PCP:  0.05;

WARSAW +       CLOUDY    34  32  93 W20G28    29.31R WCI  22

$$

INZ006>009-017-018-025>027-140100-
NORTHEAST INDIANA

CITY           SKY/WX    TMP DP  RH WIND       PRES   REMARKS
AUBURN +       LGT SNOW  32  30  93 S3        29.30F
FORT WAYNE     LGT SNOW  33  32  96 SW16      29.31F FOG     WCI  23
6HR MIN TEMP:  28; 6HR MAX TEMP:  33; 6HR PCP:  0.07;

KENDALLVILLE + LGT SNOW  31  30  97 SW8       29.29S WCI  23

$$

INZ028-029-035-036-043>045-051>053-140100-
WEST CENTRAL INDIANA

CITY           SKY/WX    TMP DP  RH WIND       PRES   REMARKS
CRAWFORDSVL +  CLOUDY    38  31  77 W26G36    29.47R WCI  26
6HR MIN TEMP:  35; 6HR MAX TEMP:  40;

GREENCASTLE +  CLOUDY    39  32  75 W14G30    29.50R WCI  31
LAFAYETTE      CLOUDY    38  29  70 W23G38    29.44R WCI  27
6HR MIN TEMP:  34; 6HR MAX TEMP:  41; 6HR PCP: TRACE;

TERRE HAUTE    LGT RAIN  43  31  62 W21G43    29.55R
6HR MIN TEMP:  40; 6HR MAX TEMP:  46; 6HR PCP: TRACE;


$$

INZ030>032-037>040-046>048-054>057-064-065-140100-
CENTRAL INDIANA

CITY           SKY/WX    TMP DP  RH WIND       PRES   REMARKS
COLUMBUS       CLOUDY    43  18  36 SW17      29.46S
FRANKFORT +    CLOUDY    41  35  77 W28G37    29.44R
6HR MIN TEMP:  37; 6HR MAX TEMP:  42;

INDIANAPOLIS   CLOUDY    42  32  67 W35G43    29.46R
6HR MIN TEMP:  35; 6HR MAX TEMP:  44; 6HR PCP: TRACE;

-EAGLE CREEK   CLOUDY    43  32  65 W23G40    29.43R
6HR MIN TEMP:  38; 6HR MAX TEMP:  44; 6HR PCP: TRACE;

KOKOMO +       CLOUDY    39  32  76 W30G37    29.37R WCI  27
6HR MIN TEMP:  33; 6HR MAX TEMP:  39; 6HR PCP: TRACE;

MT COMFORT *+  CLOUDY    41  32  70 W23G29    29.42R
SHELBYVILLE    CLOUDY    43  24  47 SW13      29.43S
6HR MIN TEMP:  34; 6HR MAX TEMP:  43; 6HR PCP: TRACE;


$$

INZ033-034-041-042-049-050-058-059-140100-
EAST CENTRAL INDIANA

CITY           SKY/WX    TMP DP  RH WIND       PRES   REMARKS
MUNCIE         CLOUDY    40  30  67 W22G35    29.36F WCI  30
6HR MIN TEMP:  33; 6HR MAX TEMP:  40; 6HR PCP: TRACE;

RICHMOND +     FLURRIES  36  27  69 SW17      29.40F WCI  25

$$

INZ060-061-067>069-081>083-085>088-140100-
SOUTHWEST INDIANA

CITY           SKY/WX    TMP DP  RH WIND       PRES   REMARKS
EVANSVILLE     CLOUDY    48  27  44 SW16G26   29.61R
6HR MIN TEMP:  44; 6HR MAX TEMP:  50;

HUNTINGBURG +  CLOUDY    47  28  47 SW15G23   29.58R
6HR MIN TEMP:  41; 6HR MAX TEMP:  48;


$$

INZ062-063-066-070>080-084-089>092-140100-
SOUTH CENTRAL AND SOUTHEAST INDIANA

CITY           SKY/WX    TMP DP  RH WIND       PRES   REMARKS
BLOOMINGTON    CLOUDY    47  25  42 W21G31    29.49R
6HR MIN TEMP:  38; 6HR MAX TEMP:  47; 6HR PCP: TRACE;

SEYMOUR +      CLOUDY    46  25  42 SW17      29.49S

$$




USA.gov is the U.S. government's official web portal to all federal, state and local government web resources and services.